CLUSTER II-FM5 (RUMBA)

Last updated on Mon Oct 13 2025 00:03:34 GMT+0000 (Coordinated Universal Time)

1 26463U 00045A 25279.65635572 .00010692 -63660-5 00000+0 0 9998 2 26463 146.6979 96.1587 9117658 315.8839 1.9747 0.42958277 19041
UTC large
Height (km)
Speed (km/s)
/
Latitude / Longitude
Inclination (degrees)
Orbital Period (minutes)
Azimuth
Elevation
Range (km)
Doppler Factor

Next 0 passes for location: London (51.5072 / 0.1276)

Sorry there are no passes over London.